Simultaneous Nadir Overpasses (SNOs) Predictions

Prediction of SNOs between AQUA and METOP-B Satellite Orbit:

Table of predicted SNOs for the next 14.0 days since TLE Epoch: 4/3/2020
Index Date (AQUA) Time (AQUA) Lat,Lon (AQUA) SZA (AQUA ) Date (METOP-B) Time (METOP-B) Lat,Lon (METOP-B) SZA (METOP-B ) Distance(km) Time Diff (sec)
1 04/04/2020 15:00:13 -73.76, 129.40 112.25 04/04/2020 14:59:10 -73.76, 129.34 112.25 2.05 63
2 04/04/2020 15:49:42 73.82, -63.10 67.80 04/04/2020 15:49:49 73.81, -63.19 67.79 3.10 7
3 04/04/2020 16:39:13 -74.12, 103.88 111.90 04/04/2020 16:40:24 -74.13, 104.91 111.93 31.52 71
4 04/07/2020 10:34:29 -73.81,-164.26 113.28 04/07/2020 10:33:32 -73.80,-164.14 113.28 3.46 57
5 04/07/2020 11:23:58 73.87, 3.25 66.78 04/07/2020 11:24:11 73.86, 3.32 66.77 2.45 13
6 04/07/2020 12:13:34 -74.42, 169.61 112.65 04/07/2020 12:14:41 -74.42, 172.06 112.73 72.94 67
7 04/10/2020 06:08:43 -73.80, -97.81 114.34 04/10/2020 06:07:54 -73.80, -97.75 114.33 1.96 49
8 04/10/2020 06:58:12 73.86, 69.69 65.72 04/10/2020 06:58:33 73.85, 69.71 65.71 1.55 21
9 04/13/2020 01:42:58 -73.81, -31.38 115.36 04/13/2020 01:42:17 -73.79, -31.36 115.37 1.87 41
10 04/13/2020 02:32:27 73.87, 136.11 64.70 04/13/2020 02:32:56 73.84, 136.09 64.67 3.13 29
11 04/15/2020 21:17:12 -73.77, 35.14 116.42 04/15/2020 21:16:40 -73.78, 35.03 116.39 3.95 32
12 04/15/2020 22:06:42 73.88,-157.48 63.70 04/15/2020 22:07:18 73.88,-157.41 63.69 2.43 36




NCC Satellite Simultaneous Nadir Overpasses (SNOs) Prediction Service
